Location: Gleizolles
(44.4833°N, 6.7667°E)
Time: 15:52:36
(UTC+00:00)

Explorer 7 - Pass Details

Date: 17 June 2024
Orbit: 465 x 619 km, 50.3° (Epoch: 12 July)

Event Time Altitude Azimuth Distance (km) Brightness Sun altitude
Rises 15:50:39 0° 292° (WNW) 2,535 11.1 34.3°
Reaches altitude 10° 15:52:58 10° 301° (WNW) 1,640 10.2 33.9°
Maximum altitude 15:56:23 35° 9° (N) 774 7.8 33.3°
Drops below altitude 10° 15:59:45 10° 77° (ENE) 1,618 8.8 32.7°
Sets 16:02:01 0° 87° (E) 2,495 9.7 32.3°
